Showing default

LEMUR 2 ESPERANZA, 63352

Orbit data source: Space-Track

LEMUR 2 ESPERANZA, 63352 is a payload satellite owned by OroraTech (US) in SSO that was launched on Wed, 26 Mar 2025 UTC via an ELECTRON launch vehicle from the Rocket Lab Launch Complex (RLLC). Payload-class satellites include a variety of spacecraft equipped with specific instruments for various scientific and technological missions. These include communications satellites like Starlink; space stations such as the ISS; scientific satellites like the Hubble; Earth observation satellites from companies like Planet Labs, Umbra, and HawkEye 360; GPS; miniature CubeSats for education and research; and military/defense satellites.

Loading next visibility...
Identifier
63352, 2025-061B
Orbit
SSO
Country
Flag of USUS
Related business
Manufacturer
Spire/Glasgow
Mission
Operational Commercial Imaging
Bus & Motor
CUBESAT 6U, Unknown motor
Mass
~15 kg wet, ~15 kg dry
Launch date (UTC)
2025-03-26 (6 months ago)
Launch vehicle
ELECTRON
Launch site
Rocket Lab Launch Complex (RLLC)
Object type
Payload
Rocket body
Debris
Shape & HBR
Box + 2 Pan, 0.2 m
Radar Cross Section
0.065 m², Medium (>0.1 m² and < 1m²)

Expand to show TLE details & history
Last TLE update: 13 hours ago

TLE from 13 hours ago
0 LEMUR 2 ESPERANZA
1 63352U 25061B   25260.91922254  .00004674  00000-0  28639-3 0  9994
2 63352  97.5325 234.3895 0021612 118.4324 241.9087 15.10464698 26442
Epoch: 2025-09-17T22:03Z
TLE epoch observation values (Epoch: 2025-09-17T22:03:40.827Z)
Latitude
-0.00001°
Longitude
-93.61888°
Altitude
544.917 km
Speed
7.586 km/s
True Right ascension
15h 37m 33s
True Declination
0° 00' 00"
Sunlit
Object was in daylight at epoch
Visualization orbit readout
Latitude
Unknown
Longitude
Unknown
Altitude
Unknown
Speed
Unknown
Apparent Right ascension
Unknown
Apparent Declination
Unknown
Sunlit
N/A
Visualization observer readout
Local Sidereal Time
04:00:02
Azimuth
Unknown
Elevation
Unknown
Doppler factor
Unknown
Orbital elements
Apogee altitude
546.699 km
Perigee altitude
516.832 km
Semi-major axis
6,909.903 km
Eccentricity
0.00216
Inclination
97.5325°
RAAN
234.3895°
Arg. of periapsis
118.4324°
True anomaly
241.6905°
Mean anomaly
241.9087°
Eccentric anomaly
241.79957°
Mean motion
3.77864 °/min
Orbital period
95.27 mins
BSTAR
0.00028639
Loading maneuver chart data...
Computing Atmospheric mass density...
Loading historical data...
Loading historical data...
Loading historical data...
Loading historical data...
Loading historical data...
Loading historical data...
Loading historical data...

Documentation

Showing up to 5 results
|